Year,Month,Day,Hour,Minute,Value (Times are PST for barometer in hPa)
2020,04,10,00,00,1017.51
2020,04,10,00,01,1017.51
2020,04,10,00,02,1017.50
2020,04,10,00,03,1017.47
2020,04,10,00,04,1017.47
2020,04,10,00,05,1017.47
2020,04,10,00,06,1017.46
2020,04,10,00,07,1017.43
2020,04,10,00,08,1017.41
2020,04,10,00,09,1017.42
2020,04,10,00,10,1017.45
2020,04,10,00,11,1017.46
2020,04,10,00,12,1017.43
2020,04,10,00,13,1017.40
2020,04,10,00,14,1017.38
2020,04,10,00,15,1017.41
2020,04,10,00,16,1017.40
2020,04,10,00,17,1017.38
2020,04,10,00,18,1017.41
2020,04,10,00,19,1017.42
2020,04,10,00,20,1017.46
2020,04,10,00,21,1017.51
2020,04,10,00,22,1017.50
2020,04,10,00,23,1017.48
2020,04,10,00,24,1017.50
2020,04,10,00,25,1017.47
2020,04,10,00,26,1017.47
2020,04,10,00,27,1017.47
2020,04,10,00,28,1017.47
2020,04,10,00,29,1017.46
2020,04,10,00,30,1017.44
2020,04,10,00,31,1017.43
2020,04,10,00,32,1017.42
2020,04,10,00,33,1017.46
2020,04,10,00,34,1017.45
2020,04,10,00,35,1017.47
2020,04,10,00,36,1017.47
2020,04,10,00,37,1017.46
2020,04,10,00,38,1017.42
2020,04,10,00,39,1017.44
2020,04,10,00,40,1017.43
2020,04,10,00,41,1017.41
2020,04,10,00,42,1017.42
2020,04,10,00,43,1017.43
2020,04,10,00,44,1017.42
2020,04,10,00,45,1017.44
2020,04,10,00,46,1017.44
2020,04,10,00,47,1017.44
2020,04,10,00,48,1017.45
2020,04,10,00,49,1017.46
2020,04,10,00,50,1017.42
2020,04,10,00,51,1017.47
2020,04,10,00,52,1017.46
2020,04,10,00,53,1017.45
2020,04,10,00,54,1017.48
2020,04,10,00,55,1017.51
2020,04,10,00,56,1017.51
2020,04,10,00,57,1017.52
2020,04,10,00,58,1017.53
2020,04,10,00,59,1017.50
2020,04,10,01,00,1017.47
2020,04,10,01,01,1017.48
2020,04,10,01,02,1017.51
2020,04,10,01,03,1017.50
2020,04,10,01,04,1017.48
2020,04,10,01,05,1017.52
2020,04,10,01,06,1017.53
2020,04,10,01,07,1017.51
2020,04,10,01,08,1017.51
2020,04,10,01,09,1017.51
2020,04,10,01,10,1017.51
2020,04,10,01,11,1017.51
2020,04,10,01,12,1017.50
2020,04,10,01,13,1017.47
2020,04,10,01,14,1017.48
2020,04,10,01,15,1017.50
2020,04,10,01,16,1017.47
2020,04,10,01,17,1017.46
2020,04,10,01,18,1017.44
2020,04,10,01,19,1017.44
2020,04,10,01,20,1017.44
2020,04,10,01,21,1017.43
2020,04,10,01,22,1017.42
2020,04,10,01,23,1017.44
2020,04,10,01,24,1017.44
2020,04,10,01,25,1017.43
2020,04,10,01,26,1017.41
2020,04,10,01,27,1017.41
2020,04,10,01,28,1017.42
2020,04,10,01,29,1017.43
2020,04,10,01,30,1017.41
2020,04,10,01,31,1017.40
2020,04,10,01,32,1017.37
2020,04,10,01,33,1017.37
2020,04,10,01,34,1017.37
2020,04,10,01,35,1017.37
2020,04,10,01,36,1017.37
2020,04,10,01,37,1017.36
2020,04,10,01,38,1017.34
2020,04,10,01,39,1017.35
2020,04,10,01,40,1017.37
2020,04,10,01,41,1017.38
2020,04,10,01,42,1017.41
2020,04,10,01,43,1017.41
2020,04,10,01,44,1017.41
2020,04,10,01,45,1017.40
2020,04,10,01,46,1017.36
2020,04,10,01,47,1017.34
2020,04,10,01,48,1017.34
2020,04,10,01,49,1017.33
2020,04,10,01,50,1017.31
2020,04,10,01,51,1017.31
2020,04,10,01,52,1017.32
2020,04,10,01,53,1017.35
2020,04,10,01,54,1017.38
2020,04,10,01,55,1017.40
2020,04,10,01,56,1017.38
2020,04,10,01,57,1017.41
2020,04,10,01,58,1017.42
2020,04,10,01,59,1017.43
2020,04,10,02,00,1017.40
2020,04,10,02,01,1017.37
2020,04,10,02,02,1017.36
2020,04,10,02,03,1017.33
2020,04,10,02,04,1017.31
2020,04,10,02,05,1017.31
2020,04,10,02,06,1017.31
2020,04,10,02,07,1017.31
2020,04,10,02,08,1017.32
2020,04,10,02,09,1017.34
2020,04,10,02,10,1017.35
2020,04,10,02,11,1017.36
2020,04,10,02,12,1017.35
2020,04,10,02,13,1017.37
2020,04,10,02,14,1017.37
2020,04,10,02,15,1017.36
2020,04,10,02,16,1017.35
2020,04,10,02,17,1017.38
2020,04,10,02,18,1017.42
2020,04,10,02,19,1017.44
2020,04,10,02,20,1017.43
2020,04,10,02,21,1017.41
2020,04,10,02,22,1017.41
2020,04,10,02,23,1017.41
2020,04,10,02,24,1017.41
2020,04,10,02,25,1017.41
2020,04,10,02,26,1017.41
2020,04,10,02,27,1017.42
2020,04,10,02,28,1017.43
2020,04,10,02,29,1017.37
2020,04,10,02,30,1017.38
2020,04,10,02,31,1017.42
2020,04,10,02,32,1017.45
2020,04,10,02,33,1017.47
2020,04,10,02,34,1017.47
2020,04,10,02,35,1017.47
2020,04,10,02,36,1017.48
2020,04,10,02,37,1017.50
2020,04,10,02,38,1017.48
2020,04,10,02,39,1017.50
2020,04,10,02,40,1017.48
2020,04,10,02,41,1017.50
2020,04,10,02,42,1017.48
2020,04,10,02,43,1017.50
2020,04,10,02,44,1017.47
2020,04,10,02,45,1017.46
2020,04,10,02,46,1017.45
2020,04,10,02,47,1017.47
2020,04,10,02,48,1017.48
2020,04,10,02,49,1017.50
2020,04,10,02,50,1017.48
2020,04,10,02,51,1017.51
2020,04,10,02,52,1017.51
2020,04,10,02,53,1017.51
2020,04,10,02,54,1017.52
2020,04,10,02,55,1017.53
2020,04,10,02,56,1017.51
2020,04,10,02,57,1017.52
2020,04,10,02,58,1017.53
2020,04,10,02,59,1017.52
2020,04,10,03,00,1017.54
2020,04,10,03,01,1017.54
2020,04,10,03,02,1017.55
2020,04,10,03,06,1017.59
2020,04,10,03,07,1017.61
2020,04,10,03,08,1017.60
2020,04,10,03,09,1017.58
2020,04,10,03,10,1017.59
2020,04,10,03,11,1017.64
2020,04,10,03,12,1017.66
2020,04,10,03,13,1017.63
2020,04,10,03,14,1017.62
2020,04,10,03,15,1017.63
2020,04,10,03,16,1017.61
2020,04,10,03,17,1017.61
2020,04,10,03,18,1017.62
2020,04,10,03,19,1017.63
2020,04,10,03,20,1017.62
2020,04,10,03,21,1017.64
2020,04,10,03,22,1017.66
2020,04,10,03,23,1017.68
2020,04,10,03,24,1017.67
2020,04,10,03,25,1017.64
2020,04,10,03,26,1017.64
2020,04,10,03,27,1017.64
2020,04,10,03,28,1017.63
2020,04,10,03,29,1017.62
2020,04,10,03,30,1017.64
2020,04,10,03,31,1017.66
2020,04,10,03,32,1017.68
2020,04,10,03,33,1017.65
2020,04,10,03,34,1017.68
2020,04,10,03,35,1017.69
2020,04,10,03,36,1017.71
2020,04,10,03,37,1017.71
2020,04,10,03,38,1017.71
2020,04,10,03,39,1017.72
2020,04,10,03,40,1017.75
2020,04,10,03,41,1017.75
2020,04,10,03,42,1017.73
2020,04,10,03,43,1017.71
2020,04,10,03,44,1017.70
2020,04,10,03,45,1017.69
2020,04,10,03,46,1017.68
2020,04,10,03,47,1017.64
2020,04,10,03,48,1017.64
2020,04,10,03,49,1017.63
2020,04,10,03,50,1017.61
2020,04,10,03,51,1017.61
2020,04,10,03,52,1017.61
2020,04,10,03,53,1017.60
2020,04,10,03,54,1017.59
2020,04,10,03,55,1017.60
2020,04,10,03,56,1017.58
2020,04,10,03,57,1017.58
2020,04,10,03,58,1017.59
2020,04,10,03,59,1017.60
2020,04,10,04,00,1017.60
2020,04,10,04,01,1017.64
2020,04,10,04,02,1017.65
2020,04,10,04,03,1017.66
2020,04,10,04,04,1017.64
2020,04,10,04,05,1017.64
2020,04,10,04,06,1017.64
2020,04,10,04,07,1017.63
2020,04,10,04,08,1017.61
2020,04,10,04,09,1017.61
2020,04,10,04,10,1017.60
2020,04,10,04,11,1017.58
2020,04,10,04,12,1017.58
2020,04,10,04,13,1017.59
2020,04,10,04,14,1017.59
2020,04,10,04,15,1017.56
2020,04,10,04,16,1017.60
2020,04,10,04,17,1017.59
2020,04,10,04,18,1017.60
2020,04,10,04,19,1017.58
2020,04,10,04,20,1017.60
2020,04,10,04,21,1017.62
2020,04,10,04,22,1017.61
2020,04,10,04,23,1017.67
2020,04,10,04,24,1017.66
2020,04,10,04,25,1017.68
2020,04,10,04,26,1017.68
2020,04,10,04,27,1017.68
2020,04,10,04,28,1017.67
2020,04,10,04,29,1017.65
2020,04,10,04,30,1017.64
2020,04,10,04,31,1017.59
2020,04,10,04,32,1017.61
2020,04,10,04,33,1017.60
2020,04,10,04,34,1017.59
2020,04,10,04,35,1017.61
2020,04,10,04,36,1017.60
2020,04,10,04,37,1017.60
2020,04,10,04,38,1017.64
2020,04,10,04,39,1017.66
2020,04,10,04,40,1017.68
2020,04,10,04,41,1017.69
2020,04,10,04,42,1017.71
2020,04,10,04,43,1017.72
2020,04,10,04,44,1017.75
2020,04,10,04,45,1017.74
2020,04,10,04,46,1017.69
2020,04,10,04,47,1017.65
2020,04,10,04,48,1017.68
2020,04,10,04,49,1017.69
2020,04,10,04,50,1017.70
2020,04,10,04,51,1017.69
2020,04,10,04,52,1017.71
2020,04,10,04,53,1017.71
2020,04,10,04,54,1017.72
2020,04,10,04,55,1017.75
2020,04,10,04,56,1017.76
2020,04,10,04,57,1017.78
2020,04,10,04,58,1017.79
2020,04,10,04,59,1017.81
2020,04,10,05,00,1017.84
2020,04,10,05,01,1017.88
2020,04,10,05,02,1017.88
2020,04,10,05,03,1017.88
2020,04,10,05,04,1017.89
2020,04,10,05,05,1017.92
2020,04,10,05,06,1017.95
2020,04,10,05,07,1017.95
2020,04,10,05,08,1017.96
2020,04,10,05,09,1017.98
2020,04,10,05,10,1017.97
2020,04,10,05,11,1017.96
2020,04,10,05,12,1017.98
2020,04,10,05,13,1017.97
2020,04,10,05,14,1017.96
2020,04,10,05,15,1017.98
2020,04,10,05,16,1017.98
2020,04,10,05,17,1017.98
2020,04,10,05,18,1017.99
2020,04,10,05,19,1018.02
2020,04,10,05,20,1017.99
2020,04,10,05,21,1017.94
2020,04,10,05,22,1017.90
2020,04,10,05,23,1017.88
2020,04,10,05,24,1017.87
2020,04,10,05,25,1017.84
2020,04,10,05,26,1017.82
2020,04,10,05,27,1017.85
2020,04,10,05,28,1017.85
2020,04,10,05,29,1017.84
2020,04,10,05,30,1017.84
2020,04,10,05,31,1017.88
2020,04,10,05,32,1017.89
2020,04,10,05,33,1017.91
2020,04,10,05,34,1017.92
2020,04,10,05,35,1017.93
2020,04,10,05,36,1017.90
2020,04,10,05,37,1017.94
2020,04,10,05,38,1017.92
2020,04,10,05,39,1017.95
2020,04,10,05,40,1017.95
2020,04,10,05,41,1017.94
2020,04,10,05,42,1017.90
2020,04,10,05,43,1017.88
2020,04,10,05,44,1017.88
2020,04,10,05,45,1017.89
2020,04,10,05,46,1017.88
2020,04,10,05,47,1017.83
2020,04,10,05,48,1017.88
2020,04,10,05,49,1017.86
2020,04,10,05,50,1017.81
2020,04,10,05,51,1017.81
2020,04,10,05,52,1017.80
2020,04,10,05,53,1017.79
2020,04,10,05,54,1017.82
2020,04,10,05,55,1017.84
2020,04,10,05,56,1017.82
2020,04,10,05,57,1017.84
2020,04,10,05,58,1017.81
2020,04,10,05,59,1017.81
2020,04,10,06,00,1017.79
2020,04,10,06,01,1017.76
2020,04,10,06,02,1017.78
2020,04,10,06,03,1017.79
2020,04,10,06,04,1017.80
2020,04,10,06,05,1017.78
2020,04,10,06,06,1017.78
2020,04,10,06,07,1017.77
2020,04,10,06,08,1017.76
2020,04,10,06,09,1017.77
2020,04,10,06,10,1017.76
2020,04,10,06,11,1017.78
2020,04,10,06,12,1017.78
2020,04,10,06,13,1017.79
2020,04,10,06,14,1017.81
2020,04,10,06,15,1017.82
2020,04,10,06,16,1017.83
2020,04,10,06,17,1017.80
2020,04,10,06,18,1017.83
2020,04,10,06,19,1017.79
2020,04,10,06,20,1017.79
2020,04,10,06,21,1017.76
2020,04,10,06,22,1017.79
2020,04,10,06,23,1017.80
2020,04,10,06,24,1017.79
2020,04,10,06,25,1017.80
2020,04,10,06,26,1017.79
2020,04,10,06,27,1017.81
2020,04,10,06,28,1017.81
2020,04,10,06,29,1017.81
2020,04,10,06,30,1017.82
2020,04,10,06,31,1017.84
2020,04,10,06,32,1017.81
2020,04,10,06,33,1017.80
2020,04,10,06,34,1017.77
2020,04,10,06,35,1017.75
2020,04,10,06,36,1017.74
2020,04,10,06,37,1017.73
2020,04,10,06,38,1017.79
2020,04,10,06,39,1017.81
2020,04,10,06,40,1017.80
2020,04,10,06,41,1017.80
2020,04,10,06,42,1017.84
2020,04,10,06,43,1017.80
2020,04,10,06,44,1017.78
2020,04,10,06,45,1017.78
2020,04,10,06,46,1017.78
2020,04,10,06,47,1017.76
2020,04,10,06,48,1017.70
2020,04,10,06,49,1017.69
2020,04,10,06,50,1017.72
2020,04,10,06,51,1017.76
2020,04,10,06,52,1017.76
2020,04,10,06,53,1017.71
2020,04,10,06,54,1017.72
2020,04,10,06,55,1017.75
2020,04,10,06,56,1017.73
2020,04,10,06,57,1017.70
2020,04,10,06,58,1017.74
2020,04,10,06,59,1017.71
2020,04,10,07,00,1017.71
2020,04,10,07,01,1017.72
2020,04,10,07,02,1017.75
2020,04,10,07,03,1017.74
2020,04,10,07,04,1017.74
2020,04,10,07,05,1017.79
2020,04,10,07,06,1017.76
2020,04,10,07,07,1017.76
2020,04,10,07,08,1017.74
2020,04,10,07,09,1017.80
2020,04,10,07,10,1017.78
2020,04,10,07,11,1017.78
2020,04,10,07,12,1017.78
2020,04,10,07,13,1017.79
2020,04,10,07,14,1017.80
2020,04,10,07,15,1017.79
2020,04,10,07,16,1017.81
2020,04,10,07,17,1017.82
2020,04,10,07,18,1017.86
2020,04,10,07,19,1017.89
2020,04,10,07,20,1017.92
2020,04,10,07,21,1017.95
2020,04,10,07,22,1017.95
2020,04,10,07,23,1017.95
2020,04,10,07,24,1017.97
2020,04,10,07,25,1018.01
2020,04,10,07,26,1017.98
2020,04,10,07,27,1017.98
2020,04,10,07,28,1017.99
2020,04,10,07,29,1018.00
2020,04,10,07,30,1017.97
2020,04,10,07,31,1018.00
2020,04,10,07,32,1017.95
2020,04,10,07,33,1017.96
2020,04,10,07,34,1017.97
2020,04,10,07,35,1017.96
2020,04,10,07,36,1017.98
2020,04,10,07,37,1017.96
2020,04,10,07,38,1017.91
2020,04,10,07,39,1017.92
2020,04,10,07,40,1017.96
2020,04,10,07,41,1017.97
2020,04,10,07,42,1017.95
2020,04,10,07,43,1017.97
2020,04,10,07,44,1018.01
2020,04,10,07,45,1017.99
2020,04,10,07,46,1018.01
2020,04,10,07,47,1017.99
2020,04,10,07,48,1018.02
2020,04,10,07,49,1018.03
2020,04,10,07,50,1018.04
2020,04,10,07,51,1018.02
2020,04,10,07,52,1018.03
2020,04,10,07,53,1018.06
2020,04,10,07,54,1018.08
2020,04,10,07,55,1018.09
2020,04,10,07,56,1018.12
2020,04,10,07,57,1018.12
2020,04,10,07,58,1018.12
2020,04,10,07,59,1018.13
2020,04,10,08,00,1018.14
2020,04,10,08,01,1018.13
2020,04,10,08,02,1018.14
2020,04,10,08,03,1018.12
2020,04,10,08,04,1018.12
2020,04,10,08,05,1018.13
2020,04,10,08,06,1018.14
2020,04,10,08,07,1018.13
2020,04,10,08,08,1018.15
2020,04,10,08,09,1018.16
2020,04,10,08,10,1018.19
2020,04,10,08,11,1018.19
2020,04,10,08,12,1018.21
2020,04,10,08,13,1018.25
2020,04,10,08,14,1018.26
2020,04,10,08,15,1018.29
2020,04,10,08,16,1018.28
2020,04,10,08,17,1018.26
2020,04,10,08,18,1018.28
2020,04,10,08,19,1018.24
2020,04,10,08,20,1018.22
2020,04,10,08,21,1018.23
2020,04,10,08,22,1018.24
2020,04,10,08,23,1018.23
2020,04,10,08,24,1018.25
2020,04,10,08,25,1018.26
2020,04,10,08,26,1018.29
2020,04,10,08,27,1018.30
2020,04,10,08,28,1018.30
2020,04,10,08,29,1018.26
2020,04,10,08,30,1018.30
2020,04,10,08,31,1018.30
2020,04,10,08,32,1018.25
2020,04,10,08,33,1018.23
2020,04,10,08,34,1018.18
2020,04,10,08,35,1018.15
2020,04,10,08,36,1018.16
2020,04,10,08,37,1018.19
2020,04,10,08,38,1018.19
2020,04,10,08,39,1018.18
2020,04,10,08,40,1018.16
2020,04,10,08,41,1018.19
2020,04,10,08,42,1018.18
2020,04,10,08,43,1018.16
2020,04,10,08,44,1018.20
2020,04,10,08,45,1018.21
2020,04,10,08,46,1018.20
2020,04,10,08,47,1018.21
2020,04,10,08,48,1018.20
2020,04,10,08,49,1018.21
2020,04,10,08,50,1018.20
2020,04,10,08,51,1018.22
2020,04,10,08,52,1018.21
2020,04,10,08,53,1018.20
2020,04,10,08,54,1018.23
2020,04,10,08,55,1018.25
2020,04,10,08,56,1018.24
2020,04,10,08,57,1018.22
2020,04,10,08,58,1018.22
2020,04,10,08,59,1018.21
2020,04,10,09,00,1018.20
2020,04,10,09,01,1018.23
2020,04,10,09,02,1018.26
2020,04,10,09,03,1018.28
2020,04,10,09,04,1018.23
2020,04,10,09,05,1018.20
2020,04,10,09,06,1018.23
2020,04,10,09,07,1018.23
2020,04,10,09,08,1018.21
2020,04,10,09,09,1018.24
2020,04,10,09,10,1018.22
2020,04,10,09,11,1018.21
2020,04,10,09,12,1018.19
2020,04,10,09,13,1018.19
2020,04,10,09,14,1018.19
2020,04,10,09,15,1018.18
2020,04,10,09,16,1018.17
2020,04,10,09,17,1018.22
2020,04,10,09,18,1018.21
2020,04,10,09,19,1018.21
2020,04,10,09,20,1018.24
2020,04,10,09,21,1018.23
2020,04,10,09,22,1018.26
2020,04,10,09,23,1018.28
2020,04,10,09,24,1018.25
2020,04,10,09,25,1018.24
2020,04,10,09,26,1018.22
2020,04,10,09,27,1018.22
2020,04,10,09,28,1018.21
2020,04,10,09,29,1018.20
2020,04,10,09,30,1018.22
2020,04,10,09,31,1018.23
2020,04,10,09,32,1018.26
2020,04,10,09,33,1018.28
2020,04,10,09,34,1018.25
2020,04,10,09,35,1018.24
2020,04,10,09,36,1018.21
2020,04,10,09,37,1018.21
2020,04,10,09,38,1018.23
2020,04,10,09,39,1018.19
2020,04,10,09,40,1018.18
2020,04,10,09,41,1018.15
2020,04,10,09,42,1018.15
2020,04,10,09,43,1018.14
2020,04,10,09,44,1018.12
2020,04,10,09,45,1018.12
2020,04,10,09,46,1018.11
2020,04,10,09,47,1018.10
2020,04,10,09,48,1018.15
2020,04,10,09,49,1018.15
2020,04,10,09,50,1018.15
2020,04,10,09,51,1018.16
2020,04,10,09,52,1018.20
2020,04,10,09,53,1018.22
2020,04,10,09,54,1018.24
2020,04,10,09,55,1018.28
2020,04,10,09,56,1018.24
2020,04,10,09,57,1018.22
2020,04,10,09,58,1018.23
2020,04,10,09,59,1018.25
2020,04,10,10,00,1018.26
2020,04,10,10,01,1018.30
2020,04,10,10,02,1018.31
2020,04,10,10,03,1018.29
2020,04,10,10,04,1018.27
2020,04,10,10,05,1018.23
2020,04,10,10,06,1018.26
2020,04,10,10,07,1018.29
2020,04,10,10,08,1018.29
2020,04,10,10,09,1018.27
2020,04,10,10,10,1018.23
2020,04,10,10,11,1018.25
2020,04,10,10,12,1018.24
2020,04,10,10,13,1018.22
2020,04,10,10,14,1018.21
2020,04,10,10,15,1018.18
2020,04,10,10,16,1018.14
2020,04,10,10,17,1018.11
2020,04,10,10,18,1018.09
2020,04,10,10,19,1018.12
2020,04,10,10,20,1018.12
2020,04,10,10,21,1018.13
2020,04,10,10,22,1018.16
2020,04,10,10,23,1018.19
2020,04,10,10,24,1018.19
2020,04,10,10,25,1018.19
2020,04,10,10,26,1018.18
2020,04,10,10,27,1018.16
2020,04,10,10,28,1018.17
2020,04,10,10,29,1018.12
2020,04,10,10,30,1018.12
2020,04,10,10,31,1018.12
2020,04,10,10,32,1018.12
2020,04,10,10,33,1018.12
2020,04,10,10,34,1018.12
2020,04,10,10,35,1018.14
2020,04,10,10,36,1018.17
2020,04,10,10,37,1018.12
2020,04,10,10,38,1018.13
2020,04,10,10,39,1018.15
2020,04,10,10,40,1018.17
2020,04,10,10,41,1018.23
2020,04,10,10,42,1018.24
2020,04,10,10,43,1018.21
2020,04,10,10,44,1018.17
2020,04,10,10,45,1018.12
2020,04,10,10,46,1018.12
2020,04,10,10,47,1018.12
2020,04,10,10,48,1018.11
2020,04,10,10,49,1018.07
2020,04,10,10,50,1018.07
2020,04,10,10,51,1018.11
2020,04,10,10,52,1018.09
2020,04,10,10,53,1018.13
2020,04,10,10,54,1018.15
2020,04,10,10,55,1018.13
2020,04,10,10,56,1018.08
2020,04,10,10,57,1018.07
2020,04,10,10,58,1018.06
2020,04,10,10,59,1018.05
2020,04,10,11,00,1018.00
2020,04,10,11,01,1018.06
2020,04,10,11,02,1018.07
2020,04,10,11,03,1018.06
2020,04,10,11,04,1018.07
2020,04,10,11,05,1018.05
2020,04,10,11,06,1018.06
2020,04,10,11,07,1018.07
2020,04,10,11,08,1018.05
2020,04,10,11,09,1018.04
2020,04,10,11,10,1018.02
2020,04,10,11,11,1018.02
2020,04,10,11,12,1018.02
2020,04,10,11,13,1018.02
2020,04,10,11,14,1018.02
2020,04,10,11,15,1018.02
2020,04,10,11,16,1018.02
2020,04,10,11,17,1018.02
2020,04,10,11,18,1018.02
2020,04,10,11,19,1015.03
2020,04,10,11,20,1008.06
2020,04,10,11,21,1008.06
2020,04,10,11,22,1008.06
2020,04,10,11,23,1011.00
2020,04,10,11,24,1017.91
2020,04,10,11,25,1018.08
2020,04,10,11,26,1018.09
2020,04,10,11,27,1018.12
2020,04,10,11,28,1018.12
2020,04,10,11,29,1018.14
2020,04,10,11,30,1018.19
2020,04,10,11,31,1018.19
2020,04,10,11,32,1018.19
2020,04,10,11,33,1018.19
2020,04,10,11,34,1018.19
2020,04,10,11,35,1018.19
2020,04,10,11,36,1018.16
2020,04,10,11,37,1018.08
2020,04,10,11,38,1018.08
2020,04,10,11,39,1017.70
2020,04,10,11,40,1016.80
2020,04,10,11,41,1016.80
2020,04,10,11,42,1016.80
2020,04,10,11,43,1016.80
2020,04,10,11,44,1016.80
2020,04,10,11,45,1014.28
2020,04,10,11,46,1006.74
2020,04,10,11,47,1006.74
2020,04,10,11,48,1006.74
2020,04,10,11,49,1009.36
2020,04,10,11,50,1017.24
2020,04,10,11,51,1017.24
2020,04,10,11,52,1017.24
2020,04,10,11,53,1017.24
2020,04,10,11,54,1015.46
2020,04,10,11,55,1011.31
2020,04,10,11,56,1011.31
2020,04,10,11,57,1011.31
2020,04,10,11,58,1011.31
2020,04,10,11,59,1011.31
2020,04,10,12,00,1011.31
2020,04,10,12,01,1011.31
2020,04,10,12,02,1011.31
2020,04,10,12,03,1011.31
2020,04,10,12,04,1011.31
2020,04,10,12,05,1011.31
2020,04,10,12,06,1011.31
2020,04,10,12,07,1011.31
2020,04,10,12,08,1011.31
2020,04,10,12,09,1011.31
2020,04,10,12,10,1010.17
2020,04,10,12,11,1007.52
2020,04,10,12,12,1008.16
2020,04,10,12,13,1010.09
2020,04,10,12,14,1009.54
2020,04,10,12,15,1008.26
2020,04,10,12,16,1008.26
2020,04,10,12,17,1008.26
2020,04,10,12,18,1008.26
2020,04,10,12,19,1008.26
2020,04,10,12,20,1008.26
2020,04,10,12,21,1008.26
2020,04,10,12,22,1008.26
2020,04,10,12,23,1008.26
2020,04,10,12,24,1008.26
2020,04,10,12,25,1008.26
2020,04,10,12,26,1008.26
2020,04,10,12,27,1008.26
2020,04,10,12,28,1008.26
2020,04,10,12,29,1008.26
2020,04,10,12,30,1008.26
2020,04,10,12,31,1008.26
2020,04,10,12,32,1008.26
2020,04,10,12,33,1008.26
2020,04,10,12,34,1008.26
2020,04,10,12,35,1006.14
2020,04,10,12,36,1001.06
2020,04,10,12,37,1000.55
2020,04,10,12,38,1000.07
2020,04,10,12,39,998.53
2020,04,10,12,40,994.21
2020,04,10,12,41,994.21
2020,04,10,12,42,994.21
2020,04,10,12,43,994.21
2020,04,10,12,44,994.21
2020,04,10,12,45,994.21
2020,04,10,12,46,994.21
2020,04,10,12,47,994.21
2020,04,10,12,48,992.22
2020,04,10,12,49,987.57
2020,04,10,12,50,987.57
2020,04,10,12,51,987.57
2020,04,10,12,52,987.57
2020,04,10,12,53,987.57
2020,04,10,12,54,987.57
2020,04,10,12,55,987.57
2020,04,10,12,56,987.57
2020,04,10,12,57,987.57
2020,04,10,12,58,987.57
2020,04,10,12,59,987.57
2020,04,10,13,00,987.57
2020,04,10,13,01,987.57
2020,04,10,13,02,987.57
2020,04,10,13,03,987.57
2020,04,10,13,04,987.57
2020,04,10,13,05,987.57
2020,04,10,13,06,983.77
2020,04,10,13,07,972.37
2020,04,10,13,08,974.38
2020,04,10,13,09,980.39
2020,04,10,13,10,980.39
2020,04,10,13,11,980.39
2020,04,10,13,12,980.39
2020,04,10,13,13,980.39
2020,04,10,13,14,980.39
2020,04,10,13,15,980.39
2020,04,10,13,16,980.39
2020,04,10,13,17,980.39
2020,04,10,13,18,980.39
2020,04,10,13,19,980.39
2020,04,10,13,20,980.39
2020,04,10,13,21,980.39
2020,04,10,13,22,980.39
2020,04,10,13,23,980.39
2020,04,10,13,24,980.39
2020,04,10,13,25,980.39
2020,04,10,13,26,980.39
2020,04,10,13,27,980.39
2020,04,10,13,28,980.39
2020,04,10,13,29,980.39
2020,04,10,13,30,980.39
2020,04,10,13,31,980.39
2020,04,10,13,32,980.39
2020,04,10,13,33,980.39
2020,04,10,13,34,980.39
2020,04,10,13,35,980.39
2020,04,10,13,36,980.39
2020,04,10,13,37,980.39
2020,04,10,13,38,980.39
2020,04,10,13,39,960.67
2020,04,10,13,40,901.52
2020,04,10,13,41,901.52
2020,04,10,13,42,901.52
2020,04,10,13,43,901.52
2020,04,10,13,44,904.16
2020,04,10,13,45,911.55
2020,04,10,13,46,911.55
2020,04,10,13,47,911.55
2020,04,10,13,48,911.55
2020,04,10,13,49,911.55
2020,04,10,13,50,911.55
2020,04,10,13,51,911.55
2020,04,10,13,52,911.55
2020,04,10,13,53,911.55
2020,04,10,13,54,911.55
2020,04,10,13,55,911.55
2020,04,10,13,56,911.55
2020,04,10,13,57,911.55
2020,04,10,13,58,911.55
2020,04,10,13,59,911.55
2020,04,10,14,00,911.55
2020,04,10,14,01,911.55
2020,04,10,14,02,911.55
2020,04,10,14,03,911.55
2020,04,10,14,04,911.55
2020,04,10,14,05,911.55
2020,04,10,14,06,911.55
2020,04,10,14,07,911.55
2020,04,10,14,08,911.55
2020,04,10,14,09,911.55
2020,04,10,14,10,911.55
2020,04,10,14,11,911.55
2020,04,10,14,12,911.55
2020,04,10,14,13,911.55
2020,04,10,14,14,911.55
2020,04,10,14,15,911.55
2020,04,10,14,16,911.55
2020,04,10,14,17,911.55
2020,04,10,14,18,911.55
2020,04,10,14,19,911.55
2020,04,10,14,20,911.55
2020,04,10,15,32,924.32
2020,04,10,15,33,924.32
2020,04,10,15,34,924.32
2020,04,10,15,35,924.32
2020,04,10,15,36,924.32
2020,04,10,15,37,924.32
2020,04,10,15,38,924.32
2020,04,10,15,39,924.32
2020,04,10,15,40,924.32
2020,04,10,15,41,932.26
2020,04,10,15,42,955.95
2020,04,10,15,43,955.54
2020,04,10,15,44,955.54
2020,04,10,15,45,955.54
2020,04,10,15,46,955.54
2020,04,10,15,47,955.54
2020,04,10,15,48,955.54
2020,04,10,15,49,955.54
2020,04,10,15,50,955.54
2020,04,10,15,51,955.54
2020,04,10,15,52,955.54
2020,04,10,15,53,955.54
2020,04,10,15,54,955.54
2020,04,10,15,55,955.54
2020,04,10,15,56,955.54
2020,04,10,15,57,955.54
2020,04,10,15,58,955.54
2020,04,10,15,59,955.54
2020,04,10,16,00,955.54
2020,04,10,16,01,955.54
2020,04,10,16,02,955.54
2020,04,10,16,03,955.54
2020,04,10,16,04,955.54
2020,04,10,16,05,955.54
2020,04,10,16,06,955.54
2020,04,10,16,07,955.54
2020,04,10,16,08,955.54
2020,04,10,16,09,955.54
2020,04,10,16,10,955.54
2020,04,10,16,11,955.54
2020,04,10,16,12,955.54
2020,04,10,16,13,955.54
2020,04,10,16,14,955.54
2020,04,10,16,15,955.54
2020,04,10,16,16,955.54
2020,04,10,16,17,955.54
2020,04,10,16,18,955.54
2020,04,10,16,19,955.54
2020,04,10,16,20,955.54
2020,04,10,16,21,955.54
2020,04,10,16,22,955.54
2020,04,10,16,23,955.54
2020,04,10,16,24,969.19
2020,04,10,16,25,1010.13
2020,04,10,16,26,1010.13
2020,04,10,16,27,1009.13
2020,04,10,16,28,1006.13
2020,04,10,16,29,1006.13
2020,04,10,16,30,1006.13
2020,04,10,16,31,1006.13
2020,04,10,16,32,1006.13
2020,04,10,16,33,1006.13
2020,04,10,16,34,1006.13
2020,04,10,16,35,1006.13
2020,04,10,16,36,1006.13
2020,04,10,16,37,1006.13
2020,04,10,16,38,1006.13
2020,04,10,16,39,1006.13
2020,04,10,16,40,1003.22
2020,04,10,16,41,994.48
2020,04,10,16,42,994.48
2020,04,10,16,43,994.48
2020,04,10,16,44,994.48
2020,04,10,16,45,994.48
2020,04,10,16,46,994.48
2020,04,10,16,47,998.68
2020,04,10,16,48,1011.28
2020,04,10,16,49,1011.28
2020,04,10,16,50,1011.28
2020,04,10,16,51,1012.23
2020,04,10,16,52,1015.07
2020,04,10,16,53,1015.07
2020,04,10,16,54,1015.07
2020,04,10,16,55,1014.43
2020,04,10,16,56,1012.50
2020,04,10,16,57,1012.50
2020,04,10,16,58,1012.50
2020,04,10,16,59,1012.50
2020,04,10,17,00,1012.50
2020,04,10,17,01,1012.50
2020,04,10,17,02,1009.28
2020,04,10,17,03,999.63
2020,04,10,17,04,1001.98
2020,04,10,17,05,1009.04
2020,04,10,17,06,1009.04
2020,04,10,17,07,1009.04
2020,04,10,17,08,1010.38
2020,04,10,17,09,1014.38
2020,04,10,17,10,1014.36
2020,04,10,17,11,1013.88
2020,04,10,17,12,1012.43
2020,04,10,17,13,1012.73
2020,04,10,17,14,1013.65
2020,04,10,17,15,1013.95
2020,04,10,17,16,1014.83